"Pseudo-MPEC" for P10LpIT

Created 2019 Jan 15 15:18:28 UT using Find_Orb

Click here for an explanation of pseudo-MPECs

 
 Astrometry: 
     P10LpIT  C2019 01 11$n^ml2gRFQnLFQ_g8PSX@^Astrometry!W$8)PYTOGAPhsvtAH@rF51
     P10LpIT  C2019 01 11r4'sF_2redacted;O5l.CAjV2i,,0/']ph!b)DZq%-=dsFSfUva5F51
     P10LpIT  C2019 01 11_2afoXUpt8oT/t;M95MlU(CpcNdvV.XvWjQ'dCPrSK3ZclickH-dF51
     P10LpIT  C2019 01 11gRvhereC`TtqDKS.I)ZV.njLpQ7NADV]oXc7e`4Kn.w94P!]Y\9hF51
     P10LpIT ^C2019 01 12.65536210 49 49.640+48 04 58.84   ~1CJI 21.84GVNEOCP568
     P10LpIT ^C2019 01 12.65632410 49 49.525+48 04 52.32   ~1CJI 22.07GVNEOCP568
     P10LpIT ^C2019 01 12.65727810 49 49.403+48 04 45.89   ~1CJI 21.82GVNEOCP568
     P10LpIT IC2019 01 15(V*^9SqWj\q%aeg8X!hZ^pQjZ^oD]%(ur[lOL(+D@r\xforN%22'L01
     P10LpIT KC2019 01 15]G-tL5oEKNQDO6Bo.%G\*ZIebg6E?y(gamPKlUgA,fJB.s+g@AqjL01
     P10LpIT KC2019 01 15jrAF?KK2'9S3%#0gv;Up\qM=4explanation8iBiIf;Df[p7mw*dL01

Station data:
(568) Mauna Kea  (N19.826116 W155.472200)  US/Hawaii.
(F51) Pan-STARRS 1, Haleakala  (N20.707235 W156.255910)  US/Hawaii.
   Observers N. Primak, A. Schultz, S. Watters, J. Thiel, T. Goggia. Measurer
   PS1 Science Consortium. 1.8-m Ritchey-Chrétien + CCD.
(L01) Višnjan Observatory, Tičan  (N45.290900 E13.749300)  Croatia.
   Observers K. Korlević, E. Pettarin. Measurer E. Pettarin. 1.0-m f/2.9
   reflector + CCD.

Orbital elements:  P10LpIT
   Perihelion 2019 Feb 3.647611 +/- 0.029 TT = 15:32:33 (JD 2458518.147611)
Epoch 2019 Jan 15.0 TT = JDT 2458498.5   Earth MOID: 0.0450   Ma: 0.0289
M 345.99556032 +/- 0.052            (J2000 ecliptic)          AutoNEOCP
n   0.71278080 +/- 0.003            Peri.  189.68868 +/- 0.033
a   1.24117223 +/- 0.00348          Node   306.07744 +/- 0.012
e   0.1718735 +/- 0.00201           Incl.   12.10161 +/- 0.10
P   1.38/505.05d           H 25.6   G  0.15   U  8.8  
q 1.02784757 +/- 0.000391    Q 1.45449689 +/- 0.00655
From 10 observations 2019 Jan. 11-15; mean residual 0".13
Residuals in arcseconds: 
190111 F51  .05-  .06+    190112 568  .04-  .01-    190115 L01  .06-  .32-    
190111 F51  .00   .00     190112 568  .01+  .01-    190115 L01  .17+  .41+    
190111 F51  .08+  .08-    190112 568  .03-  .03+    
190111 F51  .02+  .02+    190115 L01  .10-  .10-    

Ephemerides (geocentric):
Date (UTC) HH   RA              Dec         delta   r     elong  mag " sig PA
---- -- -- --  -------------   -----------  ------ ------ -----  --- ---- ---
2019 01 15 15  10 45 57.537   +41 56 40.83  .07042 1.0365 137.3 21.5 .314  55
2019 01 15 16  10 45 53.689   +41 50 50.44  .07030 1.0364 137.3 21.5 .319  53
2019 01 15 17  10 45 49.828   +41 44 58.83  .07018 1.0364 137.4 21.5 .324  51
2019 01 15 18  10 45 45.953   +41 39 06.00  .07007 1.0363 137.5 21.5 .329  50
2019 01 15 19  10 45 42.065   +41 33 11.93  .06995 1.0363 137.5 21.5 .335  48
2019 01 15 20  10 45 38.162   +41 27 16.63  .06983 1.0363 137.6 21.5 .341  46
2019 01 15 21  10 45 34.246   +41 21 20.09  .06972 1.0362 137.7 21.5 .347  45
2019 01 15 22  10 45 30.317   +41 15 22.31  .06960 1.0362 137.7 21.5 .354  43
2019 01 15 23  10 45 26.374   +41 09 23.28  .06949 1.0362 137.8 21.5 .361  41
2019 01 16 00  10 45 22.417   +41 03 23.00  .06937 1.0361 137.9 21.5 .369  40
2019 01 16 01  10 45 18.447   +40 57 21.48  .06925 1.0361 137.9 21.5 .377  38
2019 01 16 02  10 45 14.463   +40 51 18.69  .06914 1.0360 138.0 21.5 .385  37
2019 01 16 03  10 45 10.466   +40 45 14.65  .06902 1.0360 138.1 21.5 .394  35
2019 01 16 04  10 45 06.455   +40 39 09.34  .06891 1.0360 138.1 21.5 .403  34
2019 01 16 05  10 45 02.431   +40 33 02.76  .06880 1.0359 138.2 21.5 .412  33
2019 01 16 06  10 44 58.394   +40 26 54.92  .06868 1.0359 138.3 21.5 .421  31
2019 01 16 07  10 44 54.343   +40 20 45.80  .06857 1.0359 138.3 21.4 .431  30
2019 01 16 08  10 44 50.278   +40 14 35.40  .06845 1.0358 138.4 21.4 .441  29
2019 01 16 09  10 44 46.201   +40 08 23.72  .06834 1.0358 138.5 21.4 .452  28
2019 01 16 10  10 44 42.110   +40 02 10.76  .06823 1.0358 138.5 21.4 .463  27
2019 01 16 11  10 44 38.006   +39 55 56.51  .06811 1.0357 138.6 21.4 .474  26
2019 01 16 12  10 44 33.888   +39 49 40.97  .06800 1.0357 138.7 21.4 .485  25
2019 01 16 13  10 44 29.758   +39 43 24.13  .06789 1.0357 138.7 21.4 .497  24
2019 01 16 14  10 44 25.614   +39 37 06.00  .06778 1.0356 138.8 21.4 .508  23
2019 01 16 15  10 44 21.457   +39 30 46.57  .06766 1.0356 138.9 21.4 .521  22
2019 01 16 16  10 44 17.286   +39 24 25.83  .06755 1.0355 138.9 21.4 .533  21
2019 01 16 17  10 44 13.103   +39 18 03.78  .06744 1.0355 139.0 21.4 .546  20
2019 01 16 18  10 44 08.906   +39 11 40.42  .06733 1.0355 139.1 21.4 .559  19
2019 01 16 19  10 44 04.697   +39 05 15.75  .06722 1.0354 139.1 21.4 .572  18
2019 01 16 20  10 44 00.474   +38 58 49.76  .06711 1.0354 139.2 21.4 .586  18
2019 01 16 21  10 43 56.238   +38 52 22.44  .06700 1.0354 139.3 21.4 .599  17
2019 01 16 22  10 43 51.990   +38 45 53.81  .06689 1.0353 139.3 21.4 .613  16
2019 01 16 23  10 43 47.728   +38 39 23.84  .06678 1.0353 139.4 21.4 .628  15
2019 01 17 00  10 43 43.454   +38 32 52.55  .06667 1.0353 139.5 21.4 .642  15
2019 01 17 01  10 43 39.166   +38 26 19.92  .06656 1.0352 139.5 21.4 .657  14
2019 01 17 02  10 43 34.866   +38 19 45.95  .06645 1.0352 139.6 21.3 .672  14
2019 01 17 03  10 43 30.552   +38 13 10.65  .06634 1.0352 139.7 21.3 .687  13
2019 01 17 04  10 43 26.226   +38 06 34.00  .06623 1.0351 139.7 21.3 .703  12
2019 01 17 05  10 43 21.887   +37 59 56.00  .06613 1.0351 139.8 21.3 .719  12
2019 01 17 06  10 43 17.535   +37 53 16.66  .06602 1.0351 139.9 21.3 .735  11
2019 01 17 07  10 43 13.171   +37 46 35.96  .06591 1.0350 139.9 21.3 .751  11
2019 01 17 08  10 43 08.793   +37 39 53.91  .06580 1.0350 140.0 21.3 .768  10
2019 01 17 09  10 43 04.403   +37 33 10.50  .06570 1.0350 140.1 21.3 .784  10
2019 01 17 10  10 43 00.000   +37 26 25.72  .06559 1.0349 140.1 21.3 .801   9
2019 01 17 11  10 42 55.585   +37 19 39.59  .06548 1.0349 140.2 21.3 .819   9
2019 01 17 12  10 42 51.157   +37 12 52.08  .06538 1.0349 140.3 21.3 .836   8
2019 01 17 13  10 42 46.716   +37 06 03.21  .06527 1.0348 140.4 21.3 .854   8
2019 01 17 14  10 42 42.263   +36 59 12.96  .06517 1.0348 140.4 21.3 .872   8